Weather History for Cumberland, MD

Change the Weather History Date:

Monday, February 18, 2013

  Actual Average (KMRB) Record (KMRB)
Temperature  
Mean Temperature 28 °F 34 °F  
Max Temperature 42 °F 44 °F 74 °F (2011)
Min Temperature 15 °F 25 °F -1 °F (1979)
Degree Days  
Heating Degree Days 36 31  
Month to date heating degree days 580  
Since 1 July heating degree days 3663  
Cooling Degree Days 0 0  
Month to date cooling degree days 0  
Year to date cooling degree days 0  
Moisture  
Dew Point 13 °F    
Average Humidity 51    
Maximum Humidity 79    
Minimum Humidity 33    
Precipitation  
Precipitation 0.00 in 0.09 in 1.06 in (2000)
Month to date precipitation 1.48  
Year to date precipitation 3.92  
Sea Level Pressure  
Sea Level Pressure 30.25 in    
Wind  
Wind Speed 4 mph (SSW)    
Max Wind Speed 16 mph    
Max Gust Speed 24 mph    
Visibility 10 miles    
Events      
T = Trace of Precipitation, MM = Missing Value Source: NWS Daily Summary

Daily Weather History Graph

Daily Weather History Graph

Search for Another Location

Airport:

Trip Planner

Search our weather history database for the weather conditions in past years. The results will help you decide how hot, cold, wet, or windy it might be!

Date:

Astronomy

Feb. 18, 2013 Rise Set
Actual Time 7:03 AM EST 5:55 PM EST
Civil Twilight 6:35 AM EST 6:22 PM EST
Nautical Twilight 6:04 AM EST 6:54 PM EST
Astronomical Twilight 5:33 AM EST 7:25 PM EST
Moon 11:40 AM EST (2/18) 1:40 AM EST (2/18)
Length of Visible Light 11h 46m
Length of Day
10h 52m
First Quarter, 58% of the Moon is Illuminated
Feb 18
First Quarter
Feb 25
Full
Mar 4
Last Quarter
Mar 11
New
Mar 19
First Quarter

Hourly Weather History & Observations

Time (EST) Temp. Windchill Dew Point Humidity Pressure Visibility Wind Dir Wind Speed Gust Speed Precip Events Conditions
12:01 AM 21.2 °F 13.6 °F 8.6 °F 58% 30.27 in 10.0 mi WNW 5.8 mph - N/A   Mostly Cloudy
12:21 AM 21.2 °F - 6.8 °F 54% 30.27 in 10.0 mi Calm Calm - N/A   Overcast
12:41 AM 21.2 °F 13.6 °F 6.8 °F 54% 30.27 in 10.0 mi WNW 5.8 mph - N/A   Mostly Cloudy
1:01 AM 21.2 °F 7.3 °F 8.6 °F 58% 30.27 in 10.0 mi NW 16.1 mph 24.2 mph N/A   Scattered Clouds
1:21 AM 21.2 °F 10.1 °F 6.8 °F 54% 30.27 in 10.0 mi WNW 10.4 mph 20.7 mph N/A   Clear
1:41 AM 21.2 °F 8.3 °F 6.8 °F 54% 30.28 in 10.0 mi NNW 13.8 mph 17.3 mph N/A   Clear
2:01 AM 21.2 °F 12.6 °F 8.6 °F 58% 30.29 in 10.0 mi NW 6.9 mph - N/A   Clear
2:21 AM 21.2 °F 11.7 °F 8.6 °F 58% 30.29 in 10.0 mi WNW 8.1 mph - N/A   Clear
2:41 AM 21.2 °F - 8.6 °F 58% 30.29 in 10.0 mi Calm Calm - N/A   Clear
3:01 AM 21.2 °F 16.4 °F 8.6 °F 58% 30.29 in 10.0 mi SW 3.5 mph - N/A   Clear
3:21 AM 21.2 °F - 8.6 °F 58% 30.28 in 10.0 mi Calm Calm - N/A   Clear
3:41 AM 21.2 °F 12.6 °F 8.6 °F 58% 30.29 in 10.0 mi WNW 6.9 mph - N/A   Clear
4:01 AM 21.2 °F 13.6 °F 6.8 °F 54% 30.29 in 10.0 mi West 5.8 mph - N/A   Clear
4:21 AM 19.4 °F 14.3 °F 6.8 °F 58% 30.30 in 10.0 mi SW 3.5 mph - N/A   Clear
4:41 AM 19.4 °F 14.3 °F 6.8 °F 58% 30.30 in 10.0 mi WSW 3.5 mph - N/A   Clear
5:01 AM 19.4 °F - 6.8 °F 58% 30.30 in 10.0 mi Calm Calm - N/A   Clear
5:21 AM 19.4 °F 11.5 °F 6.8 °F 58% 30.32 in 10.0 mi SW 5.8 mph - N/A   Clear
5:41 AM 19.4 °F - 6.8 °F 58% 30.32 in 10.0 mi Calm Calm - N/A   Clear
6:01 AM 19.4 °F 14.3 °F 6.8 °F 58% 30.33 in 10.0 mi SW 3.5 mph - N/A   Clear
6:21 AM 19.4 °F - 6.8 °F 58% 30.33 in 10.0 mi Calm Calm - N/A   Clear
6:41 AM 17.6 °F 12.3 °F 8.6 °F 68% 30.34 in 10.0 mi SSW 3.5 mph - N/A   Clear
7:01 AM 17.6 °F 12.3 °F 8.6 °F 68% 30.35 in 10.0 mi SSE 3.5 mph - N/A   Clear
7:21 AM 15.8 °F - 10.4 °F 79% 30.35 in 10.0 mi Calm Calm - N/A   Clear
7:41 AM 17.6 °F 12.3 °F 10.4 °F 73% 30.37 in 10.0 mi SSE 3.5 mph - N/A   Clear
8:01 AM 19.4 °F 14.3 °F 10.4 °F 68% 30.37 in 10.0 mi SE 3.5 mph - N/A   Clear
8:21 AM 21.2 °F - 10.4 °F 63% 30.37 in 10.0 mi Calm Calm - N/A   Clear
8:42 AM 23.0 °F - 10.4 °F 59% 30.37 in 10.0 mi Calm Calm - N/A   Clear
9:02 AM 24.8 °F - 10.4 °F 54% 30.37 in 10.0 mi Calm Calm - N/A   Clear
9:22 AM 26.6 °F - 10.4 °F 51% 30.37 in 10.0 mi Calm Calm - N/A   Clear
9:42 AM 28.4 °F 24.6 °F 10.4 °F 47% 30.37 in 10.0 mi ESE 3.5 mph - N/A   Clear
10:02 AM 28.4 °F - 10.4 °F 47% 30.36 in 10.0 mi Calm Calm - N/A   Clear
10:22 AM 28.4 °F 24.6 °F 10.4 °F 47% 30.36 in 10.0 mi SSE 3.5 mph - N/A   Clear
10:42 AM 30.2 °F 26.7 °F 12.2 °F 47% 30.35 in 10.0 mi NE 3.5 mph - N/A   Clear
11:02 AM 30.2 °F 26.7 °F 12.2 °F 47% 30.34 in 10.0 mi East 3.5 mph - N/A   Clear
11:22 AM 32.0 °F - 12.2 °F 44% 30.34 in 10.0 mi Calm Calm - N/A   Clear
11:42 AM 32.0 °F - 12.2 °F 44% 30.32 in 10.0 mi Calm Calm - N/A   Clear
12:02 PM 33.8 °F 28.6 °F 14.0 °F 44% 30.31 in 10.0 mi SE 5.8 mph - N/A   Clear
12:22 PM 33.8 °F - 14.0 °F 44% 30.29 in 10.0 mi Calm Calm - N/A   Clear
12:42 PM 35.6 °F 31.7 °F 14.0 °F 41% 30.28 in 10.0 mi SE 4.6 mph - N/A   Clear
1:02 PM 35.6 °F 32.8 °F 14.0 °F 41% 30.26 in 10.0 mi East 3.5 mph - N/A   Clear
1:22 PM 37.4 °F 32.8 °F 14.0 °F 38% 30.25 in 10.0 mi SE 5.8 mph - N/A   Clear
1:42 PM 39.2 °F 35.9 °F 15.8 °F 39% 30.24 in 10.0 mi SSE 4.6 mph - N/A   Clear
2:02 PM 39.2 °F 35.9 °F 14.0 °F 36% 30.23 in 10.0 mi ESE 4.6 mph - N/A   Clear
2:22 PM 41.0 °F 37.1 °F 15.8 °F 36% 30.22 in 10.0 mi SSE 5.8 mph - N/A   Clear
2:42 PM 41.0 °F 36.4 °F 15.8 °F 36% 30.20 in 10.0 mi SE 6.9 mph - N/A   Clear
3:02 PM 42.8 °F 39.3 °F 17.6 °F 36% 30.19 in 10.0 mi SSW 5.8 mph - N/A   Clear
3:22 PM 42.8 °F 41.1 °F 15.8 °F 34% 30.19 in 10.0 mi South 3.5 mph - N/A   Clear
3:42 PM 42.8 °F 39.3 °F 17.6 °F 36% 30.18 in 10.0 mi SSE 5.8 mph - N/A   Clear
4:02 PM 42.8 °F 41.1 °F 17.6 °F 36% 30.18 in 10.0 mi SSE 3.5 mph - N/A   Clear
4:22 PM 42.8 °F - 15.8 °F 34% 30.18 in 10.0 mi Calm Calm - N/A   Clear
4:42 PM 42.8 °F - 17.6 °F 36% 30.18 in 10.0 mi Calm Calm - N/A   Clear
5:02 PM 42.8 °F - 17.6 °F 36% 30.17 in 10.0 mi Calm Calm - N/A   Clear
5:22 PM 42.8 °F - 15.8 °F 34% 30.17 in 10.0 mi Calm Calm - N/A   Clear
5:43 PM 41.0 °F - 14.0 °F 33% 30.17 in 10.0 mi Calm Calm - N/A   Clear
6:03 PM 41.0 °F - 15.8 °F 36% 30.17 in 10.0 mi Calm Calm - N/A   Clear
6:23 PM 39.2 °F - 15.8 °F 39% 30.17 in 10.0 mi Calm Calm - N/A   Clear
6:43 PM 39.2 °F - 15.8 °F 39% 30.17 in 10.0 mi Calm Calm - N/A   Clear
7:03 PM 39.2 °F - 15.8 °F 39% 30.16 in 10.0 mi Calm Calm - N/A   Clear
7:23 PM 37.4 °F 34.9 °F 17.6 °F 45% 30.15 in 10.0 mi NNW 3.5 mph - N/A   Clear
7:43 PM 35.6 °F 31.7 °F 17.6 °F 48% 30.15 in 10.0 mi NNW 4.6 mph - N/A   Clear
8:03 PM 35.6 °F 31.7 °F 17.6 °F 48% 30.14 in 10.0 mi NNW 4.6 mph - N/A   Clear
8:23 PM 33.8 °F 29.6 °F 17.6 °F 52% 30.14 in 10.0 mi NNW 4.6 mph - N/A   Clear
8:43 PM 33.8 °F 29.6 °F 19.4 °F 56% 30.13 in 10.0 mi NNW 4.6 mph - N/A   Clear
9:03 PM 32.0 °F - 19.4 °F 60% 30.13 in 10.0 mi Calm Calm - N/A   Clear
9:23 PM 32.0 °F - 19.4 °F 60% 30.12 in 10.0 mi Calm Calm - N/A   Clear
9:43 PM 32.0 °F - 19.4 °F 60% 30.12 in 10.0 mi Calm Calm - N/A   Clear
10:03 PM 32.0 °F - 19.4 °F 60% 30.12 in 10.0 mi Calm Calm - N/A   Clear
10:23 PM 30.2 °F - 19.4 °F 64% 30.11 in 10.0 mi Calm Calm - N/A   Clear
10:43 PM 30.2 °F - 19.4 °F 64% 30.11 in 10.0 mi Calm Calm - N/A   Clear
11:03 PM 30.2 °F - 19.4 °F 64% 30.11 in 10.0 mi Calm Calm - N/A   Clear
11:23 PM 30.2 °F - 19.4 °F 64% 30.10 in 10.0 mi Calm Calm - N/A   Clear
11:43 PM 28.4 °F - 21.2 °F 74% 30.09 in 10.0 mi Calm Calm - N/A   Clear